Change the Weather History Date:

Sunday, December 1, 2013

  Actual Average Record
Temperature  
Mean Temperature 24 °F -  
Max Temperature 30 °F 30 °F 60 °F (1962)
Min Temperature 19 °F 14 °F -11 °F (2014)
Degree Days  
Heating Degree Days 40    
Moisture  
Dew Point 21 °F    
Average Humidity 91    
Maximum Humidity 100    
Minimum Humidity 75    
Precipitation  
Precipitation 0.00 in - - ()
Sea Level Pressure  
Sea Level Pressure 30.06 in    
Wind  
Wind Speed 3 mph (ESE)    
Max Wind Speed 9 mph    
Max Gust Speed -    
Visibility 5 miles    
Events Fog    
Averages and records for this station are not official NWS values.
T = Trace of Precipitation, MM = Missing Value Source: NWS Daily Summary

Daily Weather History Graph

Daily Weather History Graph

Search for Another Location

Airport or City:

Trip Planner

Search our weather history database for the weather conditions in past years. The results will help you decide how hot, cold, wet, or windy it might be!

Date:

Astronomy

Dec. 01, 2013 Rise Set
Actual Time 7:41 AM CST 4:38 PM CST
Civil Twilight 7:08 AM CST 5:12 PM CST
Nautical Twilight 6:31 AM CST 5:49 PM CST
Astronomical Twilight 5:55 AM CST 6:25 PM CST
Moon 5:57 AM CST (12/1) 3:52 PM CST (12/1)
Length of Visible Light 10h 04m
Length of Day
8h 57m
Waning Crescent, 2% of the Moon is Illuminated
Dec 1
Waning Crescent
Dec 2
New
Dec 9
First Quarter
Dec 17
Full
Dec 25
Last Quarter

Hourly Weather History & Observations

Time (CST) Temp. Windchill Dew Point Humidity Pressure Visibility Wind Dir Wind Speed Gust Speed Precip Events Conditions
12:13 AM 19.4 °F 10.4 °F 19.4 °F 100% 30.17 in 5.0 mi North 6.9 mph - N/A   Overcast
12:33 AM 21.2 °F 16.4 °F 19.4 °F 93% 30.17 in 5.0 mi North 3.5 mph - N/A   Overcast
12:53 AM 21.2 °F 14.9 °F 19.4 °F 93% 30.17 in 4.0 mi North 4.6 mph - N/A   Overcast
1:13 AM 21.2 °F 16.4 °F 19.4 °F 93% 30.17 in 4.0 mi NNW 3.5 mph - N/A   Overcast
1:33 AM 21.2 °F - 19.4 °F 93% 30.17 in 4.0 mi Calm Calm - N/A   Overcast
1:53 AM 21.2 °F 14.9 °F 19.4 °F 93% 30.16 in 3.0 mi NNE 4.6 mph - N/A   Overcast
2:13 AM 21.2 °F - 19.4 °F 93% 30.17 in 4.0 mi Calm Calm - N/A   Overcast
2:33 AM 21.2 °F - 19.4 °F 93% 30.18 in 4.0 mi Calm Calm - N/A   Overcast
2:53 AM 21.2 °F 16.4 °F 19.4 °F 93% 30.18 in 3.0 mi NW 3.5 mph - N/A   Overcast
3:14 AM 21.2 °F - 19.4 °F 93% 30.18 in 2.5 mi Calm Calm - N/A   Overcast
3:33 AM 21.2 °F - 19.4 °F 93% 30.17 in 1.8 mi Calm Calm - N/A   Overcast
3:53 AM 21.2 °F - 19.4 °F 93% 30.17 in 1.8 mi Calm Calm - N/A   Overcast
4:14 AM 21.2 °F - 19.4 °F 93% 30.17 in 1.5 mi Calm Calm - N/A   Overcast
4:33 AM 19.4 °F - 19.4 °F 100% 30.17 in 1.2 mi Calm Calm - N/A   Overcast
4:53 AM 19.4 °F - 19.4 °F 100% 30.17 in 0.8 mi Calm Calm - N/A   Overcast
5:13 AM 19.4 °F - 19.4 °F 100% 30.17 in 0.5 mi Calm Calm - N/A Fog Light Freezing Fog
5:33 AM 21.2 °F - 19.4 °F 93% 30.17 in 1.0 mi Calm Calm - N/A   Overcast
5:54 AM 19.4 °F - 19.4 °F 100% 30.16 in 0.5 mi Calm Calm - N/A Fog Light Freezing Fog
6:13 AM 19.4 °F 14.3 °F 19.4 °F 100% 30.17 in 0.8 mi West 3.5 mph - N/A   Overcast
6:33 AM 19.4 °F - 19.4 °F 100% 30.16 in 0.5 mi Calm Calm - N/A Fog Light Freezing Fog
6:54 AM 19.4 °F - 19.4 °F 100% 30.16 in 0.8 mi Calm Calm - N/A   Overcast
7:13 AM 19.4 °F - 19.4 °F 100% 30.16 in 0.5 mi Calm Calm - N/A Fog Light Freezing Fog
7:33 AM 19.4 °F - 19.4 °F 100% 30.16 in 0.5 mi Calm Calm - N/A Fog Light Freezing Fog
7:53 AM 19.4 °F - 19.4 °F 100% 30.15 in 0.2 mi Calm Calm - N/A Fog Light Freezing Fog
8:13 AM 21.2 °F - 19.4 °F 93% 30.15 in 0.2 mi Calm Calm - N/A Fog Light Freezing Fog
8:34 AM 21.2 °F - 19.4 °F 93% 30.15 in 0.2 mi Calm Calm - N/A Fog Light Freezing Fog
8:53 AM 21.2 °F - 19.4 °F 93% 30.15 in 0.5 mi Calm Calm - N/A Fog Light Freezing Fog
9:13 AM 21.2 °F - 19.4 °F 93% 30.15 in 1.5 mi Calm Calm - N/A   Overcast
9:34 AM 21.2 °F - 19.4 °F 93% 30.15 in 3.0 mi Calm Calm - N/A   Overcast
9:53 AM 21.2 °F - 21.2 °F 100% 30.15 in 2.5 mi Calm Calm - N/A   Overcast
10:13 AM 21.2 °F - 21.2 °F 100% 30.15 in 4.0 mi Calm Calm - N/A   Overcast
10:33 AM 23.0 °F - 21.2 °F 93% 30.14 in 3.0 mi Calm Calm - N/A   Overcast
10:53 AM 24.8 °F - 23.0 °F 93% 30.14 in 4.0 mi Calm Calm - N/A   Overcast
11:13 AM 24.8 °F - 23.0 °F 93% 30.13 in 5.0 mi Calm Calm - N/A   Overcast
11:33 AM 24.8 °F - 24.8 °F 100% 30.12 in 7.0 mi Calm Calm - N/A   Overcast
11:53 AM 24.8 °F 19.1 °F 24.8 °F 100% 30.11 in 7.0 mi SSW 4.6 mph - N/A   Overcast
12:13 PM 24.8 °F 19.1 °F 24.8 °F 100% 30.09 in 7.0 mi SSE 4.6 mph - N/A   Overcast
12:33 PM 26.6 °F 22.6 °F 24.8 °F 93% 30.08 in 7.0 mi SSE 3.5 mph - N/A   Mostly Cloudy
12:53 PM 26.6 °F - 24.8 °F 93% 30.07 in 7.0 mi Calm Calm - N/A   Mostly Cloudy
1:14 PM 26.6 °F 22.6 °F 24.8 °F 93% 30.06 in 7.0 mi SE 3.5 mph - N/A   Scattered Clouds
1:33 PM 26.6 °F - 23.0 °F 86% 30.05 in 10.0 mi Calm Calm - N/A   Scattered Clouds
1:53 PM 28.4 °F 23.3 °F 23.0 °F 80% 30.03 in 10.0 mi East 4.6 mph - N/A   Mostly Cloudy
2:13 PM 28.4 °F 23.3 °F 23.0 °F 80% 30.03 in 10.0 mi East 4.6 mph - N/A   Scattered Clouds
2:33 PM 28.4 °F 24.6 °F 23.0 °F 80% 30.02 in 10.0 mi ESE 3.5 mph - N/A   Clear
2:53 PM 28.4 °F 23.3 °F 23.0 °F 80% 30.02 in 10.0 mi ESE 4.6 mph - N/A   Clear
3:13 PM 30.2 °F 25.4 °F 23.0 °F 75% 30.01 in 10.0 mi SE 4.6 mph - N/A   Clear
3:34 PM 30.2 °F 26.7 °F 24.8 °F 80% 30.00 in 10.0 mi ESE 3.5 mph - N/A   Clear
3:53 PM 28.4 °F 22.2 °F 24.8 °F 86% 30.00 in 10.0 mi ESE 5.8 mph - N/A   Clear
4:13 PM 30.2 °F 23.4 °F 23.0 °F 75% 29.99 in 10.0 mi ESE 6.9 mph - N/A   Clear
4:33 PM 26.6 °F 21.2 °F 23.0 °F 86% 29.98 in 10.0 mi ESE 4.6 mph - N/A   Clear
4:53 PM 24.8 °F 16.9 °F 21.2 °F 86% 29.98 in 10.0 mi East 6.9 mph - N/A   Clear
5:14 PM 24.8 °F 16.1 °F 21.2 °F 86% 29.98 in 10.0 mi East 8.1 mph - N/A   Clear
5:33 PM 24.8 °F 16.9 °F 21.2 °F 86% 29.97 in 7.0 mi East 6.9 mph - N/A   Clear
5:53 PM 24.8 °F 20.5 °F 21.2 °F 86% 29.97 in 10.0 mi East 3.5 mph - N/A   Clear
6:13 PM 24.8 °F 19.1 °F 21.2 °F 86% 29.97 in 7.0 mi East 4.6 mph - N/A   Clear
6:33 PM 24.8 °F 16.1 °F 21.2 °F 86% 29.95 in 7.0 mi ESE 8.1 mph - N/A   Scattered Clouds
6:53 PM 24.8 °F 16.9 °F 21.2 °F 86% 29.95 in 7.0 mi ESE 6.9 mph - N/A   Scattered Clouds
7:13 PM 24.8 °F 16.1 °F 21.2 °F 86% 29.94 in 7.0 mi ESE 8.1 mph - N/A   Clear
7:33 PM 24.8 °F 16.9 °F 21.2 °F 86% 29.93 in 7.0 mi ESE 6.9 mph - N/A   Clear
7:53 PM 24.8 °F 16.9 °F 21.2 °F 86% 29.93 in 7.0 mi ESE 6.9 mph - N/A   Clear
8:13 PM 26.6 °F 19.1 °F 23.0 °F 86% 29.91 in 7.0 mi ESE 6.9 mph - N/A   Mostly Cloudy
8:33 PM 26.6 °F 20.0 °F 21.2 °F 80% 29.91 in 7.0 mi East 5.8 mph - N/A   Mostly Cloudy
8:54 PM 26.6 °F 20.0 °F 23.0 °F 86% 29.90 in 7.0 mi ESE 5.8 mph - N/A   Scattered Clouds
9:13 PM 26.6 °F 17.5 °F 23.0 °F 86% 29.90 in 7.0 mi ESE 9.2 mph - N/A   Scattered Clouds
9:33 PM 26.6 °F 18.2 °F 23.0 °F 86% 29.90 in 7.0 mi ESE 8.1 mph - N/A   Mostly Cloudy
9:53 PM 26.6 °F 20.0 °F 23.0 °F 86% 29.89 in 7.0 mi ESE 5.8 mph - N/A   Mostly Cloudy
10:13 PM 26.6 °F 19.1 °F 23.0 °F 86% 29.88 in 7.0 mi SE 6.9 mph - N/A   Scattered Clouds
10:33 PM 26.6 °F 17.5 °F 23.0 °F 86% 29.87 in 7.0 mi SE 9.2 mph - N/A   Mostly Cloudy
10:53 PM 26.6 °F 17.5 °F 23.0 °F 86% 29.87 in 7.0 mi ESE 9.2 mph - N/A   Scattered Clouds
11:13 PM 26.6 °F 18.2 °F 23.0 °F 86% 29.86 in 7.0 mi ESE 8.1 mph - N/A   Scattered Clouds
11:34 PM 28.4 °F 21.2 °F 24.8 °F 86% 29.86 in 7.0 mi ESE 6.9 mph - N/A   Overcast
11:53 PM 28.4 °F 20.4 °F 24.8 °F 86% 29.85 in 7.0 mi SE 8.1 mph - N/A   Overcast